This demonstration page uses our WeatherBlox Daily Observations layout. Learn more.

Left ArrowRight Arrow

44.31136, -96.79839

Hourly Observations for April 25, 2017

Temp ( °F °C ) Dew Point ( °F °C ) Humidity (%) Winds ( mph kmh ) Pressure ( in mb ) Visibility ( mi km ) Precip ( " mm )
12:09 am 00:09 Cloudy 39 4 37 3 93 93 NNW 13 20 29.62 1003 10 16 0.00 0.00
12:56 am 00:56 Cloudy 40 4.4 37 2.8 89 89 N 10 17 29.62 1003 10 16 0.00 0.00
1:56 am 01:56 Cloudy 40 4.4 36 2.2 86 86 NNW 13 20 29.62 1003 10 16 0.00 0.00
2:56 am 02:56 Cloudy 38 3.3 36 2.2 93 93 N 12 19 29.63 1003 10 16 0.00 0.00
3:46 am 03:46 Cloudy 37 3 36 2 93 93 NNW 14 22 29.65 1004 10 16 0.00 0.00
3:56 am 03:56 Cloudy 37 2.8 36 2.2 96 96 NNW 16 26 29.62 1003 10 16 0.00 0.00
4:56 am 04:56 Cloudy 38 3.3 36 2.2 93 93 N 13 20 29.62 1003 8 13 0.00 0.00
5:56 am 05:56 Cloudy 37 2.8 35 1.7 93 93 N 17 28 29.63 1003 10 16 0.00 0.00
6:56 am 06:56 Cloudy 36 2.2 35 1.7 97 97 N 15 24 29.63 1003 7 11 0.00 0.00
7:56 am 07:56 Cloudy 36 2.2 34 1.1 93 93 N 15 24 29.64 1004 9 14 0.00 0.00
8:56 am 08:56 Cloudy 36 2.2 34 1.1 93 93 N 13 20 29.68 1005 10 16 0.00 0.00
9:56 am 09:56 Cloudy 36 2.2 34 1.1 93 93 N 14 22 29.71 1006 10 16 0.00 0.00
10:56 am 10:56 Cloudy 37 2.8 34 1.1 89 89 N 16 26 29.71 1006 8 13 0.00 0.00
11:04 am 11:04 Cloudy with Mist and Fog 37 3 34 1 87 87 N 14 22 29.71 1006 6 10 0.00 0.00
11:56 am 11:56 Cloudy with Mist and Fog 37 2.8 35 1.7 93 93 N 17 28 29.71 1006 6 10 0.00 0.00
12:56 pm 12:56 Cloudy 38 3.3 35 1.7 89 89 N 20 31 29.68 1005 10 16 0.00 0.00
1:56 pm 13:56 Cloudy 38 3.3 34 1.1 86 86 N 18 30 29.66 1005 10 16 0.00 0.00
2:56 pm 14:56 Cloudy 37 2.8 34 1.1 89 89 N 20 31 29.69 1006 10 16 0.00 0.00
3:56 pm 15:56 Cloudy with Light Rain 37 2.8 34 1.1 89 89 N 14 22 29.72 1006 10 16 0.00 0.03
4:56 pm 16:56 Cloudy with Light Rain 36 2.2 34 1.1 93 93 N 18 30 29.70 1006 10 16 0.00 0.03
5:56 pm 17:56 Cloudy 36 2.2 34 1.1 93 93 N 21 33 29.71 1006 10 16 0.00 0.03
6:56 pm 18:56 Cloudy 36 2.2 33 0.6 89 89 N 18 30 29.74 1007 10 16 0.00 0.00
7:56 pm 19:56 Cloudy with Light Rain 35 1.7 33 0.6 93 93 N 18 30 29.75 1008 8 13 0.00 0.03
8:56 pm 20:56 Cloudy with Light Rain 34 1.1 33 0.6 97 97 N 18 30 29.75 1008 10 16 0.00 0.03
9:56 pm 21:56 Cloudy with Light Rain 35 1.7 33 0.6 93 93 N 17 28 29.75 1008 10 16 0.05 1.27
10:56 pm 22:56 Cloudy with Light Rain 35 1.7 33 0.6 93 93 N 17 28 29.75 1007 10 16 0.03 0.76
11:56 pm 23:56 Cloudy with Light Rain 34 1.1 33 0.6 97 97 NNW 14 22 29.74 1007 10 16 0.00 0.03

Powered by AerisWeather